Regional Weather Roundup
Issued by NWS Portland, ME

Current Version | Previous Version | Text Only | Print | Product List | Glossary On
Versions: 1 2 3 4 5 6 7 8 9 10 11 12 13 14 15 16 17 18 19 20 21 22 23 24 25 26 27 28 29 30 31 32 33 34 35 36 37 38 39 40 41 42 43 44 45 46 47 48 49 50
000
ASUS41 KGYX 170510
RWRGYX
WEATHER ROUNDUP FOR MAINE AND NEW HAMPSHIRE
NATIONAL WEATHER SERVICE GRAY ME
100 AM EDT FRI AUG 17 2018

MEZ002-005-006-010-012-015-018-020-021-024-026-027-029-170600-
MAINE

CITY           SKY/WX    TMP DP  RH WIND       PRES   REMARKS
PORTLAND       FAIR      64  59  83 CALM      30.09S
SANFORD        FAIR      57  56  96 SW3       30.10S
BAR HARBOR     FAIR      57  55  93 CALM      30.08S
WISCASSET      FAIR      57  56  96 CALM      30.11R
ROCKLAND       FAIR      55  54  96 CALM      30.09R
FRYEBURG       FAIR      54  54 100 CALM      30.11F
LEWISTONAUBURN FAIR      57  56  96 CALM      30.10F
AUGUSTA        FAIR      61  54  77 CALM      30.10S
WATERVILLE     FAIR      61  54  77 N6        30.08S
BANGOR         FAIR      58  55  90 CALM      30.09R
GREENVILLE       N/A     57  53  86 NW3       30.10S
MILLINOCKET    FAIR      58  55  90 CALM      30.10S
HOULTON        FAIR      49  49 100 CALM      30.08S
PRESQUE ISLE   FAIR      50  48  93 CALM      30.10S FOG
FRENCHVILLE    FAIR      53  47  79 NW5       30.09S
CARIBOU        FAIR      53  49  86 CALM      30.09R
$$

NHZ002-005-008-009-011-012-014-170600-
NEW HAMPSHIRE

CITY           SKY/WX    TMP DP  RH WIND       PRES   REMARKS
PORTSMOUTH     PTCLDY    69  57  65 N6        30.07S
ROCHESTER      FAIR      62  60  93 NW5       30.09S
MANCHESTER     NOT AVBL
CONCORD        FAIR      63  62  97 CALM      30.10R
LACONIA        FAIR      62  58  86 CALM      30.11
PLYMOUTH       FAIR      56  55  95 CALM      30.11S
BERLIN         MOCLDY    49  49 100 CALM      30.14S
WHITEFIELD     FAIR      51  50  96 CALM      30.13S
JAFFREY        NOT AVBL
LEBANON        FAIR      62  59  90 N3        30.11R
MT WASHINGTON  PTCLDY    48  28  46 NW36        N/A
$$

VTZ005-007-008-170600-
VERMONT

CITY           SKY/WX    TMP DP  RH WIND       PRES   REMARKS
ST JOHNSBURY     N/A     55  55 100 MISG      30.11S
MONTPELIER     FAIR      56  56 100 CALM      30.16S
BURLINGTON     FAIR      62  57  83 CALM      30.08F
$$

MAZ007-012-024-CTZ003-RIZ002-NYZ038-NYZ072-170600-
SOUTHERN NEW ENGLAND AND NY

CITY           SKY/WX    TMP DP  RH WIND       PRES   REMARKS
BOSTON         FAIR      77  62  59 N3        30.07S
WORCESTER      FAIR      73  68  84 CALM      30.11S
NANTUCKET      FAIR      74  72  93 CALM      30.07S
PROVIDENCE     FAIR      76  71  85 W6        30.07S
HARTFORD       FAIR      73  71  93 NW3       30.07R
ALBANY         FAIR      72  67  84 CALM      30.08R
NEW YORK CITY  FAIR      85  68  56 SW7       30.07S
$$

ANZ081-ANZ082-ANZ150-NHZ014-MEZ023>029-170600-
COASTAL MARINE OBSERVATIONS

STATION/POSITION TIME  TEMP    WIND        PRES    WAVE
                       AIR SEA DIR/SP/G            HT/PER
                 (UTC) (F)     (DEG/KT/KT) (MB)    (FT/S)
MOUNT DESERT ROC 0500   65     340/  7/  7 1018.4R
MATINICUS ROCK   0400   68     360/ 10/ 10 1017.9R
ISLE OF SHOALS   0400   71      20/ 11/ 11 1017.8R
JEFFREYS LEDGE   0436      71                N/A     2/ 7
$$

.............KEY..............
   WCI - WIND CHILL
   TC  - TEMPERATURE IN CELSIUS
   VSB - VISIBILITY IN MILES
   HX  - HEAT INDEX
   FAIR- INDICATES FEW OR NO CLOUDS BELOW 12,000 FT, WITH NO
         SIGNIFICANT WEATHER AND/OR OBSTRUCTIONS TO VISIBILITY.





USA.gov is the U.S. government's official web portal to all federal, state and local government web resources and services.